Weather History for KAGS - February, 2012

Change the Weather History Date:

Sunday, February 19, 2012

  Actual Average Record
Temperature  
Mean Temperature 51 °F 50 °F  
Max Temperature 61 °F 63 °F 82 °F (1956)
Min Temperature 41 °F 37 °F 16 °F (1958)
Degree Days  
Heating Degree Days 14 15  
Month to date heating degree days 274 320  
Since 1 July heating degree days 1644 1905  
Cooling Degree Days 0 0  
Month to date cooling degree days 0 0  
Year to date cooling degree days 0 1  
Growing Degree Days 1 (Base 50)    
Moisture  
Dew Point 50 °F    
Average Humidity 86    
Maximum Humidity 100    
Minimum Humidity 72    
Precipitation  
Precipitation 0.64 in 0.14 in 1.34 in (1946)
Month to date precipitation 1.01 2.60  
Year to date precipitation 2.41 6.51  
Sea Level Pressure  
Sea Level Pressure 29.79 in    
Wind  
Wind Speed 8 mph (NNE)    
Max Wind Speed 23 mph    
Max Gust Speed 33 mph    
Visibility 7 miles    
Events Rain    
T = Trace of Precipitation, MM = Missing Value Source: NWS Daily Summary

Daily Weather History Graph

Daily Weather History Graph

Search for Another Location

Airport or City:

Trip Planner

Search our weather history database for the weather conditions in past years. The results will help you decide how hot, cold, wet, or windy it might be!

Date:

Astronomy

Feb. 19, 2012 Rise Set
Actual Time 7:08 AM EST 6:15 PM EST
Civil Twilight 6:42 AM EST 6:41 PM EST
Nautical Twilight 6:13 AM EST 7:10 PM EST
Astronomical Twilight 5:45 AM EST 7:38 PM EST
Moon 5:23 AM EST (2/19) 4:19 PM EST (2/19)
Length of Visible Light 11h 58m
Length of Day
11h 07m
Waning Crescent, 5% of the Moon is Illuminated
Feb 19
Waning Crescent
Feb 21
New
Feb 29
First Quarter
Mar 8
Full
Mar 14
Last Quarter

Hourly Weather History & Observations

Time (EST) Temp. Windchill Dew Point Humidity Pressure Visibility Wind Dir Wind Speed Gust Speed Precip Events Conditions
12:53 AM 50.0 °F - 48.0 °F 93% 29.87 in 4.0 mi NE 9.2 mph - 0.12 in Rain Heavy Rain
1:15 AM 50.0 °F - 48.2 °F 94% 29.88 in 4.0 mi North 9.2 mph - 0.07 in Rain Heavy Rain
1:25 AM 50.0 °F - 48.2 °F 94% 29.89 in 3.0 mi North 8.1 mph - 0.12 in Rain Heavy Rain
1:28 AM 50.0 °F - 48.2 °F 94% 29.89 in 2.5 mi North 9.2 mph - 0.14 in Rain Heavy Rain
1:37 AM 50.0 °F - 48.2 °F 94% 29.89 in 2.5 mi North 9.2 mph - 0.20 in Rain Heavy Rain
1:42 AM 50.0 °F - 48.2 °F 94% 29.90 in 3.0 mi NNW 9.2 mph - 0.23 in Rain Heavy Rain
1:47 AM 50.0 °F - 48.2 °F 94% 29.92 in 3.0 mi NNW 9.2 mph - 0.24 in Rain Rain
1:53 AM 51.1 °F - 48.9 °F 92% 29.93 in 3.0 mi North 11.5 mph - 0.26 in Rain Rain
1:56 AM 51.8 °F - 48.2 °F 88% 29.93 in 2.5 mi North 9.2 mph - 0.01 in Rain Rain
2:19 AM 51.8 °F - 48.2 °F 88% 29.92 in 3.0 mi ESE 3.5 mph - 0.09 in Rain Rain
2:53 AM 51.1 °F - 48.9 °F 92% 29.87 in 10.0 mi East 5.8 mph - 0.10 in Rain Light Rain
3:50 AM 51.8 °F - 50.0 °F 94% 29.79 in 10.0 mi ESE 6.9 mph - 0.01 in   Overcast
3:53 AM 52.0 °F - 50.0 °F 93% 29.78 in 10.0 mi ESE 9.2 mph - 0.01 in   Overcast
4:13 AM 51.8 °F - 50.0 °F 94% 29.78 in 10.0 mi SE 9.2 mph - N/A   Overcast
4:25 AM 51.8 °F - 51.8 °F 100% 29.76 in 10.0 mi East 5.8 mph 16.1 mph N/A   Overcast
4:53 AM 53.1 °F - 51.1 °F 93% 29.78 in 10.0 mi SE 5.8 mph - N/A   Overcast
5:53 AM 54.0 °F - 52.0 °F 93% 29.78 in 10.0 mi Calm Calm - N/A   Overcast
6:53 AM 54.0 °F - 52.0 °F 93% 29.78 in 10.0 mi ENE 3.5 mph - N/A   Overcast
7:08 AM 53.6 °F - 51.8 °F 94% 29.78 in 10.0 mi Calm Calm - N/A   Overcast
7:46 AM 53.6 °F - 53.6 °F 100% 29.77 in 2.5 mi NNE 4.6 mph - 0.00 in Rain Light Rain
7:53 AM 54.0 °F - 53.1 °F 97% 29.77 in 2.5 mi NNE 4.6 mph - 0.01 in Rain Light Rain
8:10 AM 53.6 °F - 53.6 °F 100% 29.77 in 4.0 mi NE 3.5 mph - 0.02 in Rain Light Rain
8:44 AM 53.6 °F - 53.6 °F 100% 29.76 in 2.0 mi NE 3.5 mph - 0.04 in Rain Light Rain
8:53 AM 54.0 °F - 53.1 °F 97% 29.76 in 2.0 mi East 4.6 mph - 0.05 in Rain Light Rain
9:53 AM 55.0 °F - 54.0 °F 96% 29.73 in 2.0 mi ENE 5.8 mph - 0.03 in Rain Light Rain
10:53 AM 55.0 °F - 54.0 °F 96% 29.72 in 2.0 mi East 3.5 mph - 0.04 in Rain Light Rain
11:53 AM 55.9 °F - 55.0 °F 97% 29.69 in 2.0 mi ENE 6.9 mph - 0.03 in Rain Light Rain
12:12 PM 57.2 °F - 55.4 °F 94% 29.69 in 2.0 mi East 3.5 mph - 0.00 in Rain Light Rain
12:53 PM 57.0 °F - 55.0 °F 93% 29.67 in 2.0 mi SE 3.5 mph - 0.00 in   Overcast
1:53 PM 57.9 °F - 55.9 °F 93% 29.65 in 3.0 mi Calm Calm - N/A   Overcast
2:53 PM 59.0 °F - 57.0 °F 93% 29.63 in 6.0 mi West 4.6 mph - N/A   Overcast
3:21 PM 60.8 °F - 57.2 °F 88% 29.64 in 6.0 mi WSW 8.1 mph - N/A   Overcast
3:39 PM 60.8 °F - 57.2 °F 88% 29.63 in 6.0 mi WSW 8.1 mph - N/A   Overcast
3:53 PM 61.0 °F - 57.0 °F 87% 29.63 in 10.0 mi WSW 8.1 mph - N/A   Overcast
4:45 PM 60.8 °F - 55.4 °F 82% 29.65 in 10.0 mi West 12.7 mph 23.0 mph 0.00 in   Overcast
4:53 PM 61.0 °F - 55.0 °F 81% 29.65 in 10.0 mi West 13.8 mph 20.7 mph 0.00 in   Overcast
5:08 PM 60.8 °F - 55.4 °F 82% 29.66 in 10.0 mi West 13.8 mph 18.4 mph N/A   Overcast
5:53 PM 60.1 °F - 52.0 °F 75% 29.69 in 10.0 mi WNW 16.1 mph 24.2 mph N/A   Overcast
6:00 PM 59.0 °F - 51.8 °F 77% 29.70 in 10.0 mi WNW 11.5 mph 24.2 mph N/A   Overcast
6:18 PM 53.6 °F - 50.0 °F 88% 29.73 in 9.0 mi North 13.8 mph 33.4 mph 0.00 in Rain Light Rain
6:28 PM 51.8 °F - 48.2 °F 88% 29.73 in 10.0 mi North 15.0 mph - 0.00 in Rain Light Rain
6:36 PM 51.8 °F - 48.2 °F 88% 29.74 in 9.0 mi North 15.0 mph - 0.00 in Rain Light Rain
6:53 PM 50.0 °F - 48.0 °F 93% 29.76 in 7.0 mi North 13.8 mph - 0.00 in Rain Light Rain
7:24 PM 48.2 °F - 44.6 °F 87% 29.80 in 10.0 mi North 13.8 mph - 0.00 in Rain Light Rain
7:53 PM 46.9 °F - 44.1 °F 90% 29.82 in 10.0 mi North 13.8 mph - 0.00 in   Overcast
8:53 PM 45.0 °F 39.7 °F 41.0 °F 86% 29.88 in 10.0 mi North 10.4 mph - N/A   Overcast
9:53 PM 43.0 °F 36.8 °F 39.0 °F 86% 29.93 in 10.0 mi North 11.5 mph - N/A   Overcast
10:11 PM 42.8 °F 36.2 °F 39.2 °F 87% 29.93 in 10.0 mi North 12.7 mph - N/A   Overcast
10:37 PM 42.8 °F 36.6 °F 39.2 °F 87% 29.94 in 10.0 mi North 11.5 mph - N/A   Overcast
10:53 PM 42.1 °F 35.2 °F 37.9 °F 85% 29.94 in 10.0 mi North 12.7 mph - N/A   Overcast
11:50 PM 41.0 °F 34.3 °F 37.4 °F 87% 29.97 in 10.0 mi North 11.5 mph - N/A   Overcast
11:53 PM 41.0 °F 35.2 °F 37.0 °F 86% 29.98 in 10.0 mi North 9.2 mph - N/A   Overcast